Location: Kitchener
(43.4500°N, 80.5000°W)
Time: 21:31:12
(UTC-04:00)

Cosmos 1939 Rocket - Visible Passes

Search period start: 23 August 2016 00:00
Search period end: 02 September 2016 00:00
Orbit: 533 x 588 km, 97.6° (Epoch: 22 August)

Date Brightness Start Highest point End Pass type
(mag) Time Alt. Az. Time Alt. Az. Time Alt. Az.
23 Aug 4.1 20:53:32 10° SE 20:56:59 26° ENE 21:00:28 10° N visible
23 Aug 4.8 22:29:22 16° SW 22:31:51 27° W 22:35:24 10° NW visible
24 Aug 4.1 20:52:36 10° SE 20:56:02 26° ENE 20:59:29 10° NNE visible
24 Aug 4.8 22:28:30 16° SW 22:30:53 27° W 22:34:28 10° NW visible
25 Aug 4.1 20:51:41 10° ESE 20:55:04 25° ENE 20:58:31 10° NNE visible
25 Aug 4.7 22:27:38 17° SW 22:29:54 28° W 22:33:32 10° NW visible
26 Aug 4.2 20:50:49 11° ESE 20:54:06 25° ENE 20:57:32 10° NNE visible
26 Aug 4.7 22:26:46 18° SW 22:28:55 29° W 22:32:35 10° NW visible
27 Aug 4.2 20:49:57 11° ESE 20:53:08 25° ENE 20:56:32 10° NNE visible
27 Aug 4.6 22:25:54 19° SW 22:27:58 29° W 22:31:38 10° NW visible
28 Aug 4.2 20:49:05 11° ESE 20:52:10 24° ENE 20:55:32 10° NNE visible
28 Aug 4.6 22:25:02 20° SW 22:26:59 30° W 22:30:41 10° NNW visible
29 Aug 4.2 20:48:13 12° ESE 20:51:13 24° ENE 20:54:33 10° NNE visible
29 Aug 4.6 22:24:10 22° SW 22:26:00 31° W 22:29:44 10° NNW visible
30 Aug 4.3 20:47:21 12° ESE 20:50:15 23° ENE 20:53:33 10° NNE visible
30 Aug 4.5 22:23:18 23° SW 22:25:01 32° W 22:28:47 10° NNW visible
31 Aug 4.3 20:46:30 12° ESE 20:49:17 23° ENE 20:52:33 10° NNE visible
31 Aug 4.5 22:22:26 24° SW 22:24:03 32° W 22:27:49 10° NNW visible
01 Sep 4.3 20:45:38 13° ESE 20:48:18 22° ENE 20:51:33 10° NNE visible
01 Sep 4.4 22:21:34 25° SW 22:23:03 33° W 22:26:51 10° NNW visible
